Weather in Biləsuvar

Azerbaijan     39°27′19″N   48°33′05″E
temp.,
°C
wind,
m/s
gust,
m/s
humid.,
%
clouds,
%
prec.,
mm/h
press.,
hPa
HPBL,
m
1 july, fri
fri101:00+22ese36600 0.0 1011163
04:00+21se34610 0.0 101075
07:00+23sse23480 0.0 1010188
10:00+30ene34200 0.0 10091275
13:00+35e55140 0.0 10072105
16:00+35e76150 0.0 10052234
19:00+31e77180 0.0 10061183
22:00+25se36320 0.0 1008129
2 july, sat
sat201:00+23sse36460 0.0 1007114
04:00+22s46490 0.0 100696
07:00+25s34350 0.0 1007217
10:00+30ne23210 0.0 10061024
13:00+35nne34170 0.0 10042180
16:00+37e75160 0.0 10023118
19:00+30e910320 0.0 10051030
22:00+25sse79420 0.0 1009502
3 july, sun
sun301:00+23sse1013523 0.0 1009711
04:00+23sse8115617 0.0 1011477
07:00+24se8105067 0.0 10121268
10:00+25ese894499 0.0 10131196
13:00+26se673897 0.0 10131509
16:00+28ese77330 0.0 10111855
19:00+25se88450 0.0 10121378
22:00+22ese6116021 0.0 1014593
4 july, mon
mon401:00+21se4106495 0.0 1013495
04:00+21sse3866100 0.0 1013361
07:00+22ese1257100 0.0 1014182
10:00+26ese454294 0.0 1015765
13:00+30ese56265 0.0 10142366
16:00+30se76262 0.0 10132339
19:00+28se78310 0.0 10141403
22:00+22se511540 0.0 1015329
5 july, tue
tue501:00+20se49610 0.0 1014198
04:00+20se35660 0.0 1014103
07:00+22se12552 0.0 1015152
10:00+28sse23290 0.0 10141122
13:00+33ese44202 0.0 10132957
16:00+33se86201 0.0 10122735
19:00+29se89290 0.0 1013909
22:00+23se611540 0.0 1015281